Location: Unspecified
(43.0000°N, 0.0000°E)
Time: 13:37:32
(UTC+00:00)

PicSat - Pass Details

Date: 17 August 2020
Orbit: 482 x 496 km, 97.4° (Epoch: 21 September)

Event Time Altitude Azimuth Distance (km) Brightness Sun altitude
Exits shadow 20:40:43 12° 60° (ENE) 1,607 ? -17.2°
Drops below altitude 10° 20:41:45 10° 43° (NE) 1,702 ? -17.4°
Sets 20:45:04 0° 10° (N) 2,589 ? -17.9°
